#timestamp,LO_Frequency,Hit,StdDev 
1590035835.3,286046989.1,P
1590035855.1,286046989.9,P
1590035875.9,286046990.0,P
1590035895.7,286046989.6,Y
1590035915.6,286046996.9,P
1590035935.4,286046996.5,N
1590035955.2,286046997.3,N
1590035975.1,286046997.7,N
1590035976.0,286046997.7,N
1590035995.8,286046997.8,N
1590036015.6,286046995.0,N
1590036035.5,286046997.5,N
1590036055.3,286046994.9,N
1590036075.2,286046998.0,N
1590036095.9,286046997.2,N
1590036115.7,286046996.8,N
1590036135.6,286046994.9,N
1590036155.4,286046994.9,N
1590036175.2,286046995.1,N
1590036195.1,286046995.1,N
1590036196.0,286046995.1,N
1590036215.8,286046996.2,N
1590036235.7,286046993.3,Y
1590036255.5,286046999.3,P
1590036275.3,286046999.0,N
1590036295.2,286046997.3,N
1590036315.0,286046997.0,N
1590036315.9,286046997.0,N
1590036335.8,286046996.7,N
1590036355.6,286046997.7,N
1590036375.4,286046997.5,N
1590036395.3,286046995.1,Y
1590036415.1,286046998.7,P
1590036435.9,286046999.0,N
1590036455.7,286046996.5,P
1590036475.5,286046999.5,N
1590036495.4,286046997.2,N
1590036515.2,286046996.7,Y
1590036535.0,286046998.2,P
1590036535.9,286046998.2,P
1590036555.8,286046998.6,P
1590036575.6,286046999.3,Y
1590036595.5,286047001.1,P
1590036615.3,286046998.3,N
1590036635.1,286046998.7,N
1590036655.9,286046999.3,N
1590036675.7,286046999.2,N
1590036695.5,286046999.2,N
1590036715.4,286046996.7,Y
1590036735.2,286046996.6,P
1590036755.1,286046999.2,N
1590036756.0,286046999.2,N
1590036775.8,286046999.1,N
1590036795.6,286046996.5,Y
1590036815.5,286046999.1,P
1590036835.3,286046999.4,N
1590036855.2,286046999.4,N
1590036875.9,286046998.7,Y
1590036895.7,286047001.1,P
1590036915.6,286047000.7,N
1590036935.4,286046998.2,N
1590036955.2,286046998.7,N
1590036975.1,286046999.3,N
1590036976.0,286046999.3,N
1590036995.8,286046998.9,N
1590037015.7,286046997.2,Y
1590037035.5,286046996.6,P
1590037055.3,286046999.5,N
1590037075.2,286046996.8,N
1590037095.0,286046996.9,N
1590037095.9,286046996.9,N
1590037115.8,286046997.0,N
1590037135.6,286046997.2,N
1590037155.4,286046995.0,Y
1590037175.3,286046998.5,P
1590037195.1,286046998.7,N
